{"data":{"norad_id":37776,"intl_designator":"2011-041B","name":"BSAT-3C (JCSAT-110R)","alt_names":[],"object_type":"PAYLOAD","status":"ACTIVE","operator":null,"country":"JPN","launch_date":"2011-08-06","launch_site_code":"FRGUI","launch_vehicle":null,"mission":null,"orbit_class":"UNKNOWN","rcs_meters":23.5886,"size_class":null,"mass_kg":null,"dimensions":null,"purposes":["comms"],"wikipedia_slug":null,"has_3d_model":false,"image_url":null,"decayed_at":null,"tle_current":{"epoch":"2026-05-25T00:50:36.291264Z","epoch_age_seconds":82482,"freshness":"FRESH","line1":"1 37776U 11041B   26145.03514226 -.00000353  00000+0  00000+0 0  9998","line2":"2 37776   0.0193   1.6067 0000098 111.2760 252.3538  1.00272679 50232","mean_motion":1.00272679,"eccentricity":9.8e-6,"inclination_deg":0.0193,"raan_deg":1.6067,"arg_perigee_deg":111.276,"mean_anomaly_deg":252.3538,"bstar":0,"rev_number":5023,"period_min":1436.0841002363,"perigee_km":35785.931130482,"apogee_km":35786.757554317,"semimajor_km":42164.4813424,"source":"CELESTRAK","updated_at":"2026-05-25T13:38:13.903181Z"}}}